Time,TemperatureF,DewpointF,PressureIn,WindDirection,WindDirectionDegrees,WindSpeedMPH,WindSpeedGustMPH,Humidity,HourlyPrecipIn,Conditions,Clouds,dailyrainin,SoftwareType,DateUTC
2013-02-23 00:00:00,31.6,29.0,30.15,North,0,2.3,2.3,90,0.00,OVC,,0.00,WeatherDisplay:10.37,2013-02-23 05:00:00,
2013-02-23 00:05:00,31.6,29.0,30.15,North,0,3.5,3.5,90,0.00,OVC,,0.00,WeatherDisplay:10.37,2013-02-23 05:05:00,
2013-02-23 00:10:00,31.6,29.0,30.15,North,0,3.5,3.5,90,0.00,OVC,,0.00,WeatherDisplay:10.37,2013-02-23 05:10:00,
2013-02-23 00:15:00,31.6,29.3,30.14,North,0,3.5,3.5,91,0.00,OVC,,0.00,WeatherDisplay:10.37,2013-02-23 05:15:00,
2013-02-23 00:20:00,31.6,29.3,30.14,North,0,3.5,3.5,91,0.00,OVC,,0.00,WeatherDisplay:10.37,2013-02-23 05:20:00,
2013-02-23 00:25:00,31.6,29.3,30.14,North,0,3.5,3.5,91,0.00,OVC,,0.00,WeatherDisplay:10.37,2013-02-23 05:25:00,
2013-02-23 00:30:00,31.5,29.4,30.13,North,0,3.5,3.5,92,0.00,OVC,,0.00,WeatherDisplay:10.37,2013-02-23 05:30:00,
2013-02-23 00:35:00,31.5,29.4,30.13,North,0,3.5,3.5,92,0.00,OVC,,0.00,WeatherDisplay:10.37,2013-02-23 05:35:00,
2013-02-23 00:40:00,31.5,29.4,30.14,North,0,2.3,2.3,92,0.00,OVC,,0.00,WeatherDisplay:10.37,2013-02-23 05:40:00,
2013-02-23 00:45:00,31.5,29.4,30.14,North,0,2.3,2.3,92,0.00,OVC,,0.00,WeatherDisplay:10.37,2013-02-23 05:45:00,
2013-02-23 00:50:00,31.5,29.4,30.13,North,0,3.5,3.5,92,0.00,OVC,,0.00,WeatherDisplay:10.37,2013-02-23 05:50:00,
2013-02-23 00:55:00,31.6,29.6,30.13,North,0,1.1,0.0,92,0.00,OVC,,0.00,WeatherDisplay:10.37,2013-02-23 05:55:00,
2013-02-23 01:00:00,31.8,29.8,30.12,North,0,4.6,4.6,92,0.00,OVC,,0.00,WeatherDisplay:10.37,2013-02-23 06:00:00,
2013-02-23 01:05:00,31.8,29.5,30.13,North,0,3.5,3.5,91,0.00,OVC,,0.00,WeatherDisplay:10.37,2013-02-23 06:05:00,
2013-02-23 01:10:00,32.0,29.7,30.13,North,0,3.5,3.5,91,0.00,OVC,,0.00,WeatherDisplay:10.37,2013-02-23 06:10:00,
2013-02-23 01:15:00,32.0,29.7,30.13,North,0,5.8,5.8,91,0.00,OVC,,0.00,WeatherDisplay:10.37,2013-02-23 06:15:00,
2013-02-23 01:21:00,32.0,29.7,30.12,North,0,2.3,2.3,91,0.00,OVC,,0.00,WeatherDisplay:10.37,2013-02-23 06:21:00,
2013-02-23 01:26:00,32.2,29.8,30.12,North,0,3.5,3.5,91,0.00,OVC,,0.00,WeatherDisplay:10.37,2013-02-23 06:26:00,
2013-02-23 01:31:00,32.2,29.8,30.12,East,90,4.6,0.0,91,0.00,OVC,,0.00,WeatherDisplay:10.37,2013-02-23 06:31:00,
2013-02-23 01:36:00,32.2,29.6,30.12,East,90,3.5,3.5,90,0.00,OVC,,0.00,WeatherDisplay:10.37,2013-02-23 06:36:00,
2013-02-23 01:41:00,32.2,29.6,30.13,East,90,3.5,0.0,90,0.00,OVC,,0.00,WeatherDisplay:10.37,2013-02-23 06:41:00,
2013-02-23 01:46:00,32.2,29.6,30.13,East,90,3.5,0.0,90,0.00,OVC,,0.00,WeatherDisplay:10.37,2013-02-23 06:46:00,
2013-02-23 01:51:00,32.4,29.8,30.13,North,0,4.6,4.6,90,0.00,OVC,,0.00,WeatherDisplay:10.37,2013-02-23 06:51:00,
2013-02-23 01:56:00,32.4,29.8,30.12,North,0,3.5,3.5,90,0.00,OVC,,0.00,WeatherDisplay:10.37,2013-02-23 06:56:00,
2013-02-23 02:01:00,32.4,29.8,30.12,East,90,3.5,3.5,90,0.00,OVC,,0.00,WeatherDisplay:10.37,2013-02-23 07:01:00,
2013-02-23 02:06:00,32.4,29.8,30.11,North,0,3.5,3.5,90,0.00,OVC,,0.00,WeatherDisplay:10.37,2013-02-23 07:06:00,
2013-02-23 02:11:00,32.5,29.9,30.11,North,0,3.5,3.5,90,0.00,OVC,,0.00,WeatherDisplay:10.37,2013-02-23 07:11:00,
2013-02-23 02:16:00,32.4,29.8,30.11,East,90,3.5,0.0,90,0.00,OVC,,0.00,WeatherDisplay:10.37,2013-02-23 07:16:00,
2013-02-23 02:21:00,32.4,30.0,30.11,North,0,3.5,3.5,91,0.00,OVC,,0.00,WeatherDisplay:10.37,2013-02-23 07:21:00,
2013-02-23 02:26:00,32.4,30.0,30.11,East,90,3.5,3.5,91,0.00,OVC,,0.00,WeatherDisplay:10.37,2013-02-23 07:26:00,
2013-02-23 02:31:00,32.2,29.8,30.11,East,90,4.6,0.0,91,0.00,OVC,,0.00,WeatherDisplay:10.37,2013-02-23 07:31:00,
2013-02-23 02:36:00,32.2,29.8,30.11,North,0,3.5,3.5,91,0.00,OVC,,0.00,WeatherDisplay:10.37,2013-02-23 07:36:00,
2013-02-23 02:41:00,32.2,29.8,30.11,North,0,4.6,4.6,91,0.00,OVC,,0.00,WeatherDisplay:10.37,2013-02-23 07:41:00,
2013-02-23 02:46:00,32.2,29.8,30.10,North,0,3.5,3.5,91,0.00,OVC,,0.00,WeatherDisplay:10.37,2013-02-23 07:46:00,
2013-02-23 02:51:00,32.2,30.1,30.09,East,90,1.1,1.1,92,0.00,OVC,,0.00,WeatherDisplay:10.37,2013-02-23 07:51:00,
2013-02-23 02:56:00,32.2,30.1,30.09,East,90,1.1,0.0,92,0.00,OVC,,0.00,WeatherDisplay:10.37,2013-02-23 07:56:00,
2013-02-23 03:01:00,32.2,30.1,30.09,East,90,1.6,0.0,92,0.00,OVC,,0.00,WeatherDisplay:10.37,2013-02-23 08:01:00,
2013-02-23 03:06:00,32.2,30.1,30.09,NE,45,2.3,0.0,92,0.00,OVC,,0.00,WeatherDisplay:10.37,2013-02-23 08:06:00,
2013-02-23 03:11:00,32.2,30.1,30.09,East,90,2.3,0.0,92,0.00,OVC,,0.00,WeatherDisplay:10.37,2013-02-23 08:11:00,
2013-02-23 03:16:00,32.2,30.1,30.08,North,0,3.5,3.5,92,0.00,OVC,,0.00,WeatherDisplay:10.37,2013-02-23 08:16:00,
2013-02-23 03:21:00,32.2,30.1,30.08,North,0,1.1,0.0,92,0.00,OVC,,0.00,WeatherDisplay:10.37,2013-02-23 08:21:00,
2013-02-23 03:26:00,32.2,30.1,30.08,North,0,1.6,1.6,92,0.00,OVC,,0.00,WeatherDisplay:10.37,2013-02-23 08:26:00,
2013-02-23 03:31:00,32.2,30.1,30.08,North,0,2.3,0.0,92,0.00,OVC,,0.00,WeatherDisplay:10.37,2013-02-23 08:31:00,
2013-02-23 03:36:00,32.2,30.1,30.07,North,0,1.6,1.6,92,0.00,OVC,,0.00,WeatherDisplay:10.37,2013-02-23 08:36:00,
2013-02-23 03:41:00,32.2,30.1,30.07,North,0,2.3,0.0,92,0.00,OVC,,0.00,WeatherDisplay:10.37,2013-02-23 08:41:00,
2013-02-23 03:46:00,32.2,30.1,30.07,North,0,2.3,2.3,92,0.00,OVC,,0.00,WeatherDisplay:10.37,2013-02-23 08:46:00,
2013-02-23 03:51:00,32.2,30.1,30.06,North,0,3.5,3.5,92,0.00,OVC,,0.00,WeatherDisplay:10.37,2013-02-23 08:51:00,
2013-02-23 03:56:00,32.2,30.1,30.06,North,0,1.1,1.6,92,0.00,OVC,,0.00,WeatherDisplay:10.37,2013-02-23 08:56:00,
2013-02-23 04:01:00,32.0,29.9,30.06,East,90,3.5,0.0,92,0.00,OVC,,0.00,WeatherDisplay:10.37,2013-02-23 09:01:00,
2013-02-23 04:06:00,32.0,29.9,30.07,East,90,1.1,0.0,92,0.00,OVC,,0.00,WeatherDisplay:10.37,2013-02-23 09:06:00,
2013-02-23 04:11:00,32.0,30.2,30.06,North,0,2.3,2.3,93,0.00,OVC,,0.00,WeatherDisplay:10.37,2013-02-23 09:11:00,
2013-02-23 04:16:00,32.0,30.2,30.07,North,0,2.3,2.3,93,0.00,OVC,,0.00,WeatherDisplay:10.37,2013-02-23 09:16:00,
2013-02-23 04:21:00,32.0,30.2,30.06,North,0,3.5,3.5,93,0.00,OVC,,0.00,WeatherDisplay:10.37,2013-02-23 09:21:00,
2013-02-23 04:26:00,32.0,30.2,30.06,North,0,1.1,1.6,93,0.00,OVC,,0.00,WeatherDisplay:10.37,2013-02-23 09:26:00,
2013-02-23 04:31:00,32.0,30.5,30.05,North,0,3.5,3.5,94,0.00,OVC,,0.00,WeatherDisplay:10.37,2013-02-23 09:31:00,
2013-02-23 04:36:00,32.0,30.5,30.06,North,0,3.5,0.0,94,0.00,OVC,,0.00,WeatherDisplay:10.37,2013-02-23 09:36:00,
2013-02-23 04:41:00,32.0,30.5,30.05,North,0,5.8,5.8,94,0.00,OVC,,0.00,WeatherDisplay:10.37,2013-02-23 09:41:00,
2013-02-23 04:46:00,32.0,30.5,30.06,North,0,3.5,0.0,94,0.00,OVC,,0.00,WeatherDisplay:10.37,2013-02-23 09:46:00,
2013-02-23 04:51:00,32.0,30.7,30.05,North,0,2.3,2.3,95,0.00,OVC,,0.00,WeatherDisplay:10.37,2013-02-23 09:51:00,
2013-02-23 04:56:00,32.0,30.7,30.05,North,0,3.5,3.5,95,0.00,OVC,,0.00,WeatherDisplay:10.37,2013-02-23 09:56:00,
2013-02-23 05:01:00,32.0,30.7,30.05,North,0,3.5,0.0,95,0.00,OVC,,0.00,WeatherDisplay:10.37,2013-02-23 10:01:00,
2013-02-23 05:06:00,32.0,30.7,30.06,North,0,3.5,3.5,95,0.00,OVC,,0.00,WeatherDisplay:10.37,2013-02-23 10:06:00,
2013-02-23 05:11:00,32.0,30.7,30.06,North,0,2.3,2.3,95,0.00,OVC,,0.00,WeatherDisplay:10.37,2013-02-23 10:11:00,
2013-02-23 05:16:00,32.0,30.7,30.05,North,0,5.8,5.8,95,0.00,OVC,,0.00,WeatherDisplay:10.37,2013-02-23 10:16:00,
2013-02-23 05:21:00,32.0,30.7,30.06,North,0,1.1,0.0,95,0.00,OVC,,0.00,WeatherDisplay:10.37,2013-02-23 10:21:00,
2013-02-23 05:26:00,32.0,30.7,30.05,North,0,3.5,0.0,95,0.00,OVC,,0.00,WeatherDisplay:10.37,2013-02-23 10:26:00,
2013-02-23 05:31:00,32.0,31.0,30.04,North,0,4.6,4.6,96,0.00,OVC,,0.00,WeatherDisplay:10.37,2013-02-23 10:31:00,
2013-02-23 05:36:00,32.0,30.7,30.05,North,0,2.3,0.0,95,0.00,OVC,,0.00,WeatherDisplay:10.37,2013-02-23 10:36:00,
2013-02-23 05:41:00,32.2,31.2,30.05,North,0,3.5,3.5,96,0.00,OVC,,0.00,WeatherDisplay:10.37,2013-02-23 10:41:00,
2013-02-23 05:46:00,32.2,31.2,30.05,North,0,2.3,2.3,96,0.00,OVC,,0.00,WeatherDisplay:10.37,2013-02-23 10:46:00,
2013-02-23 05:51:00,32.2,31.2,30.05,North,0,3.5,0.0,96,0.00,OVC,,0.00,WeatherDisplay:10.37,2013-02-23 10:51:00,
2013-02-23 05:56:00,32.2,31.2,30.05,East,90,1.6,0.0,96,0.00,OVC,,0.00,WeatherDisplay:10.37,2013-02-23 10:56:00,
2013-02-23 06:01:00,32.2,31.2,30.06,East,90,1.1,0.0,96,0.00,OVC,,0.00,WeatherDisplay:10.37,2013-02-23 11:01:00,
2013-02-23 06:06:00,32.2,31.2,30.06,East,90,1.1,0.0,96,0.00,OVC,,0.00,WeatherDisplay:10.37,2013-02-23 11:06:00,
2013-02-23 06:11:00,32.2,31.2,30.06,East,90,2.3,2.3,96,0.00,OVC,,0.00,WeatherDisplay:10.37,2013-02-23 11:11:00,
2013-02-23 06:16:00,32.4,31.3,30.05,East,90,1.1,0.0,96,0.00,OVC,,0.00,WeatherDisplay:10.37,2013-02-23 11:16:00,
2013-02-23 06:21:00,32.4,31.3,30.04,North,0,2.3,2.3,96,0.00,OVC,,0.00,WeatherDisplay:10.37,2013-02-23 11:21:00,
2013-02-23 06:26:00,32.4,31.3,30.05,East,90,1.1,0.0,96,0.00,OVC,,0.00,WeatherDisplay:10.37,2013-02-23 11:26:00,
2013-02-23 06:31:00,32.4,31.3,30.05,North,0,3.5,3.5,96,0.00,OVC,,0.00,WeatherDisplay:10.37,2013-02-23 11:31:00,
2013-02-23 06:36:00,32.4,31.3,30.04,East,90,2.3,2.3,96,0.00,OVC,,0.00,WeatherDisplay:10.37,2013-02-23 11:36:00,
2013-02-23 06:41:00,32.4,31.3,30.03,North,0,3.5,3.5,96,0.00,OVC,,0.00,WeatherDisplay:10.37,2013-02-23 11:41:00,
2013-02-23 06:46:00,32.4,31.3,30.04,East,90,3.5,0.0,96,0.00,OVC,,0.00,WeatherDisplay:10.37,2013-02-23 11:46:00,
2013-02-23 06:51:00,32.4,31.3,30.04,East,90,1.1,0.0,96,0.00,OVC,,0.00,WeatherDisplay:10.37,2013-02-23 11:51:00,
2013-02-23 06:56:00,32.4,31.3,30.04,East,90,0.0,0.0,96,0.00,OVC,,0.00,WeatherDisplay:10.37,2013-02-23 11:56:00,
2013-02-23 07:01:00,32.4,31.3,30.04,East,90,1.1,0.0,96,0.00,OVC,,0.00,WeatherDisplay:10.37,2013-02-23 12:01:00,
2013-02-23 07:06:00,32.4,31.3,30.04,East,90,0.0,0.0,96,0.00,OVC,,0.00,WeatherDisplay:10.37,2013-02-23 12:06:00,
2013-02-23 07:11:00,32.4,31.3,30.05,East,90,0.0,0.0,96,0.00,OVC,,0.00,WeatherDisplay:10.37,2013-02-23 12:11:00,
2013-02-23 07:16:00,32.4,31.3,30.04,East,90,0.0,0.0,96,0.00,OVC,,0.00,WeatherDisplay:10.37,2013-02-23 12:16:00,
2013-02-23 07:21:00,32.4,31.3,30.04,East,90,0.0,0.0,96,0.00,OVC,,0.00,WeatherDisplay:10.37,2013-02-23 12:21:00,
2013-02-23 07:26:00,32.4,31.3,30.05,East,90,2.3,0.0,96,0.00,OVC,,0.00,WeatherDisplay:10.37,2013-02-23 12:26:00,
2013-02-23 07:31:00,32.4,31.6,30.04,North,0,1.1,1.1,97,0.00,OVC,,0.00,WeatherDisplay:10.37,2013-02-23 12:31:00,
2013-02-23 07:36:00,32.5,31.8,30.04,East,90,1.1,0.0,97,0.00,OVC,,0.00,WeatherDisplay:10.37,2013-02-23 12:36:00,
2013-02-23 07:41:00,32.5,31.8,30.04,North,0,3.5,3.5,97,0.00,OVC,,0.00,WeatherDisplay:10.37,2013-02-23 12:41:00,
2013-02-23 07:46:00,32.5,31.8,30.03,North,0,3.5,3.5,97,0.00,OVC,,0.00,WeatherDisplay:10.37,2013-02-23 12:46:00,
2013-02-23 07:51:00,32.5,31.8,30.03,East,90,1.1,0.0,97,0.00,OVC,,0.00,WeatherDisplay:10.37,2013-02-23 12:51:00,
2013-02-23 07:56:00,32.7,32.0,30.03,North,0,3.5,3.5,97,0.00,OVC,,0.00,WeatherDisplay:10.37,2013-02-23 12:56:00,
2013-02-23 08:01:00,32.7,32.2,30.03,North,0,4.6,0.0,98,0.00,OVC,,0.00,WeatherDisplay:10.37,2013-02-23 13:01:00,
2013-02-23 08:06:00,32.7,32.2,30.02,North,0,3.5,3.5,98,0.00,OVC,,0.00,WeatherDisplay:10.37,2013-02-23 13:06:00,
2013-02-23 08:11:00,32.9,32.4,30.02,NE,45,4.6,4.6,98,0.00,OVC,,0.00,WeatherDisplay:10.37,2013-02-23 13:11:00,
2013-02-23 08:16:00,32.9,32.4,30.01,East,90,2.3,0.0,98,0.00,OVC,,0.00,WeatherDisplay:10.37,2013-02-23 13:16:00,
2013-02-23 08:21:00,33.1,32.6,30.01,North,0,4.6,4.6,98,0.00,OVC,,0.00,WeatherDisplay:10.37,2013-02-23 13:21:00,
2013-02-23 08:26:00,33.3,32.8,30.01,East,90,2.3,2.3,98,0.00,OVC,,0.00,WeatherDisplay:10.37,2013-02-23 13:26:00,
2013-02-23 08:31:00,33.3,32.5,30.01,East,90,3.5,0.0,97,0.00,OVC,,0.00,WeatherDisplay:10.37,2013-02-23 13:31:00,
2013-02-23 08:36:00,33.4,32.7,30.01,East,90,3.5,0.0,97,0.00,OVC,,0.00,WeatherDisplay:10.37,2013-02-23 13:36:00,
2013-02-23 08:41:00,33.6,32.9,30.01,East,90,2.3,2.3,97,0.01,RA,,0.01,WeatherDisplay:10.37,2013-02-23 13:41:00,
2013-02-23 08:46:00,33.8,33.0,30.01,North,0,2.3,2.3,97,0.01,RA,,0.01,WeatherDisplay:10.37,2013-02-23 13:46:00,
2013-02-23 08:51:00,34.0,33.2,30.01,North,0,3.5,0.0,97,0.01,OVC,,0.01,WeatherDisplay:10.37,2013-02-23 13:51:00,
2013-02-23 08:56:00,34.0,33.2,30.01,North,0,3.5,3.5,97,0.01,OVC,,0.01,WeatherDisplay:10.37,2013-02-23 13:56:00,
2013-02-23 09:01:00,34.0,33.0,30.01,North,0,3.5,3.5,96,0.01,OVC,,0.01,WeatherDisplay:10.37,2013-02-23 14:01:00,
2013-02-23 09:06:00,34.0,33.0,30.01,North,0,3.5,3.5,96,0.01,OVC,,0.01,WeatherDisplay:10.37,2013-02-23 14:06:00,
2013-02-23 09:11:00,34.0,33.0,30.01,East,90,2.3,0.0,96,0.01,OVC,,0.01,WeatherDisplay:10.37,2013-02-23 14:11:00,
2013-02-23 09:16:00,34.2,33.1,30.01,North,0,1.1,1.1,96,0.01,OVC,,0.01,WeatherDisplay:10.37,2013-02-23 14:16:00,
2013-02-23 09:21:00,34.3,33.3,30.01,North,0,3.5,3.5,96,0.01,OVC,,0.01,WeatherDisplay:10.37,2013-02-23 14:21:00,
2013-02-23 09:26:00,34.3,33.3,30.01,East,90,2.3,0.0,96,0.01,OVC,,0.01,WeatherDisplay:10.37,2013-02-23 14:26:00,
2013-02-23 09:31:00,34.5,33.5,30.00,East,90,1.1,0.0,96,0.01,OVC,,0.01,WeatherDisplay:10.37,2013-02-23 14:31:00,
2013-02-23 09:36:00,34.7,33.7,30.01,North,0,2.3,2.3,96,0.01,OVC,,0.01,WeatherDisplay:10.37,2013-02-23 14:36:00,
2013-02-23 09:41:00,34.7,33.7,30.00,North,0,2.3,0.0,96,0.00,OVC,,0.01,WeatherDisplay:10.37,2013-02-23 14:41:00,
2013-02-23 09:46:00,34.7,33.7,30.00,North,0,2.3,0.0,96,0.00,OVC,,0.01,WeatherDisplay:10.37,2013-02-23 14:46:00,
2013-02-23 09:51:00,34.7,33.7,30.01,East,90,1.1,0.0,96,0.00,OVC,,0.01,WeatherDisplay:10.37,2013-02-23 14:51:00,
2013-02-23 09:56:00,34.9,33.9,30.00,North,0,3.5,3.5,96,0.00,OVC,,0.01,WeatherDisplay:10.37,2013-02-23 14:56:00,
2013-02-23 10:01:00,34.9,33.9,30.00,East,90,2.3,2.3,96,0.00,OVC,,0.01,WeatherDisplay:10.37,2013-02-23 15:01:00,
2013-02-23 10:06:00,34.9,33.9,30.00,East,90,0.0,0.0,96,0.00,OVC,,0.01,WeatherDisplay:10.37,2013-02-23 15:06:00,
2013-02-23 10:11:00,34.7,33.7,30.00,East,90,2.3,0.0,96,0.00,OVC,,0.01,WeatherDisplay:10.37,2013-02-23 15:11:00,
2013-02-23 10:16:00,34.9,34.1,29.99,East,90,1.1,1.1,97,0.00,OVC,,0.01,WeatherDisplay:10.37,2013-02-23 15:16:00,
2013-02-23 10:21:00,34.9,34.1,29.99,East,90,1.1,0.0,97,0.00,OVC,,0.01,WeatherDisplay:10.37,2013-02-23 15:21:00,
2013-02-23 10:26:00,34.9,34.1,29.99,East,90,2.3,0.0,97,0.00,OVC,,0.01,WeatherDisplay:10.37,2013-02-23 15:26:00,
2013-02-23 10:32:00,34.9,34.1,30.00,East,90,1.1,0.0,97,0.00,OVC,,0.01,WeatherDisplay:10.37,2013-02-23 15:32:00,
2013-02-23 10:37:00,35.1,34.3,29.99,East,90,1.1,0.0,97,0.00,OVC,,0.01,WeatherDisplay:10.37,2013-02-23 15:37:00,
2013-02-23 10:42:00,35.2,34.7,29.99,North,0,2.3,2.3,98,0.00,OVC,,0.01,WeatherDisplay:10.37,2013-02-23 15:42:00,
2013-02-23 10:47:00,35.2,34.7,29.98,North,0,3.5,3.5,98,0.00,OVC,,0.01,WeatherDisplay:10.37,2013-02-23 15:47:00,
2013-02-23 10:52:00,35.4,34.9,29.98,North,0,3.5,3.5,98,0.00,OVC,,0.01,WeatherDisplay:10.37,2013-02-23 15:52:00,
2013-02-23 10:57:00,35.4,34.9,29.97,East,90,1.1,0.0,98,0.00,OVC,,0.01,WeatherDisplay:10.37,2013-02-23 15:57:00,
2013-02-23 11:02:00,36.0,35.5,29.97,East,90,1.1,0.0,98,0.00,OVC,,0.01,WeatherDisplay:10.37,2013-02-23 16:02:00,
2013-02-23 11:07:00,36.3,35.8,29.97,East,90,0.0,0.0,98,0.00,OVC,,0.01,WeatherDisplay:10.37,2013-02-23 16:07:00,
2013-02-23 11:12:00,36.5,35.7,29.97,East,90,1.1,0.0,97,0.00,OVC,,0.01,WeatherDisplay:10.37,2013-02-23 16:12:00,
2013-02-23 11:17:00,36.9,36.1,29.97,East,90,1.1,0.0,97,0.00,OVC,,0.01,WeatherDisplay:10.37,2013-02-23 16:17:00,
2013-02-23 11:22:00,36.9,35.8,29.98,East,90,2.3,0.0,96,0.00,OVC,,0.01,WeatherDisplay:10.37,2013-02-23 16:22:00,
2013-02-23 11:27:00,37.0,36.0,29.97,East,90,1.1,0.0,96,0.00,OVC,,0.01,WeatherDisplay:10.37,2013-02-23 16:27:00,
2013-02-23 11:32:00,37.4,36.1,29.97,East,90,1.1,0.0,95,0.00,OVC,,0.01,WeatherDisplay:10.37,2013-02-23 16:32:00,
2013-02-23 11:37:00,37.8,36.2,29.97,East,90,3.5,3.5,94,0.00,OVC,,0.01,WeatherDisplay:10.37,2013-02-23 16:37:00,
2013-02-23 11:42:00,37.8,36.2,29.97,East,90,1.1,0.0,94,0.00,OVC,,0.01,WeatherDisplay:10.37,2013-02-23 16:42:00,
2013-02-23 11:47:00,37.9,36.4,29.97,East,90,1.1,0.0,94,0.00,OVC,,0.01,WeatherDisplay:10.37,2013-02-23 16:47:00,
2013-02-23 11:52:00,38.3,36.5,29.96,East,90,1.1,0.0,93,0.00,OVC,,0.01,WeatherDisplay:10.37,2013-02-23 16:52:00,
2013-02-23 11:57:00,38.5,36.4,29.96,East,90,3.5,0.0,92,0.00,OVC,,0.01,WeatherDisplay:10.37,2013-02-23 16:57:00,
2013-02-23 12:02:00,38.7,36.5,29.96,East,90,1.1,1.1,92,0.00,OVC,,0.01,WeatherDisplay:10.37,2013-02-23 17:02:00,
2013-02-23 12:07:00,39.0,36.9,29.96,North,0,3.5,3.5,92,0.00,OVC,,0.01,WeatherDisplay:10.37,2013-02-23 17:07:00,
2013-02-23 12:12:00,39.2,36.8,29.96,East,90,2.3,0.0,91,0.00,OVC,,0.01,WeatherDisplay:10.37,2013-02-23 17:12:00,
2013-02-23 12:17:00,39.9,37.5,29.95,East,90,4.6,4.6,91,0.00,OVC,,0.01,WeatherDisplay:10.37,2013-02-23 17:17:00,
2013-02-23 12:22:00,40.5,37.5,29.95,East,90,1.1,0.0,89,0.00,OVC,,0.01,WeatherDisplay:10.37,2013-02-23 17:22:00,
2013-02-23 12:27:00,40.8,37.8,29.95,North,0,5.8,5.8,89,0.00,OVC,,0.01,WeatherDisplay:10.37,2013-02-23 17:27:00,
2013-02-23 12:32:00,40.6,37.1,29.94,North,0,5.8,5.8,87,0.00,OVC,,0.01,WeatherDisplay:10.37,2013-02-23 17:32:00,
2013-02-23 12:37:00,41.0,37.7,29.94,North,0,5.8,5.8,88,0.00,OVC,,0.01,WeatherDisplay:10.37,2013-02-23 17:37:00,
2013-02-23 12:42:00,41.4,37.8,29.94,East,90,3.5,0.0,87,0.00,OVC,,0.01,WeatherDisplay:10.37,2013-02-23 17:42:00,
2013-02-23 12:47:00,41.9,38.0,29.93,North,0,4.6,4.6,86,0.00,OVC,,0.01,WeatherDisplay:10.37,2013-02-23 17:47:00,
2013-02-23 12:52:00,41.7,37.8,29.94,North,0,5.8,5.8,86,0.00,OVC,,0.01,WeatherDisplay:10.37,2013-02-23 17:52:00,
2013-02-23 12:57:00,41.9,38.0,29.93,North,0,4.6,4.6,86,0.00,OVC,,0.01,WeatherDisplay:10.37,2013-02-23 17:57:00,
2013-02-23 13:02:00,42.4,38.5,29.93,East,90,2.3,2.3,86,0.00,OVC,,0.01,WeatherDisplay:10.37,2013-02-23 18:02:00,
2013-02-23 13:07:00,42.6,38.4,29.93,East,90,3.5,3.5,85,0.00,OVC,,0.01,WeatherDisplay:10.37,2013-02-23 18:07:00,
2013-02-23 13:12:00,43.0,38.2,29.93,North,0,2.3,0.0,83,0.00,OVC,,0.01,WeatherDisplay:10.37,2013-02-23 18:12:00,
2013-02-23 13:17:00,43.3,38.5,29.93,East,90,3.5,0.0,83,0.00,OVC,,0.01,WeatherDisplay:10.37,2013-02-23 18:17:00,
2013-02-23 13:22:00,44.4,39.3,29.92,East,90,2.3,2.3,82,0.00,OVC,,0.01,WeatherDisplay:10.37,2013-02-23 18:22:00,
2013-02-23 13:27:00,44.6,38.8,29.91,North,0,3.5,3.5,80,0.00,OVC,,0.01,WeatherDisplay:10.37,2013-02-23 18:27:00,
2013-02-23 13:32:00,44.8,38.7,29.91,North,0,2.3,2.3,79,0.00,OVC,,0.01,WeatherDisplay:10.37,2013-02-23 18:32:00,
2013-02-23 13:37:00,45.5,39.4,29.91,East,90,2.3,2.3,79,0.00,OVC,,0.01,WeatherDisplay:10.37,2013-02-23 18:37:00,
2013-02-23 13:42:00,45.3,38.9,29.91,East,90,3.5,3.5,78,0.00,OVC,,0.01,WeatherDisplay:10.37,2013-02-23 18:42:00,
2013-02-23 13:47:00,45.5,39.0,29.91,East,90,2.3,2.3,78,0.00,OVC,,0.01,WeatherDisplay:10.37,2013-02-23 18:47:00,
2013-02-23 13:52:00,46.0,39.6,29.91,North,0,2.3,2.3,78,0.00,OVC,,0.01,WeatherDisplay:10.37,2013-02-23 18:52:00,
2013-02-23 13:57:00,45.9,39.4,29.90,North,0,3.5,3.5,78,0.00,OVC,,0.01,WeatherDisplay:10.37,2013-02-23 18:57:00,
2013-02-23 14:02:00,45.5,39.0,29.90,North,0,3.5,3.5,78,0.00,OVC,,0.01,WeatherDisplay:10.37,2013-02-23 19:02:00,
2013-02-23 14:07:00,45.3,38.9,29.90,East,90,4.6,0.0,78,0.00,OVC,,0.01,WeatherDisplay:10.37,2013-02-23 19:07:00,
2013-02-23 14:12:00,45.9,39.7,29.90,East,90,3.5,0.0,79,0.00,OVC,,0.01,WeatherDisplay:10.37,2013-02-23 19:12:00,
2013-02-23 14:17:00,46.0,39.6,29.89,North,0,3.5,3.5,78,0.00,OVC,,0.01,WeatherDisplay:10.37,2013-02-23 19:17:00,
2013-02-23 14:22:00,45.9,39.4,29.89,North,0,5.8,5.8,78,0.00,OVC,,0.01,WeatherDisplay:10.37,2013-02-23 19:22:00,
2013-02-23 14:27:00,45.3,39.2,29.89,North,0,5.8,5.8,79,0.00,OVC,,0.01,WeatherDisplay:10.37,2013-02-23 19:27:00,
2013-02-23 14:32:00,45.3,39.2,29.88,North,0,3.5,3.5,79,0.00,OVC,,0.01,WeatherDisplay:10.37,2013-02-23 19:32:00,
2013-02-23 14:37:00,45.3,39.5,29.88,East,90,2.3,2.3,80,0.00,OVC,,0.01,WeatherDisplay:10.37,2013-02-23 19:37:00,
2013-02-23 14:42:00,45.5,39.7,29.88,North,0,3.5,3.5,80,0.00,OVC,,0.01,WeatherDisplay:10.37,2013-02-23 19:42:00,
2013-02-23 14:47:00,45.1,39.3,29.88,North,0,6.9,6.9,80,0.00,OVC,,0.01,WeatherDisplay:10.37,2013-02-23 19:47:00,
2013-02-23 14:52:00,45.3,40.1,29.88,East,90,4.6,4.6,82,0.00,OVC,,0.01,WeatherDisplay:10.37,2013-02-23 19:52:00,
2013-02-23 14:57:00,45.7,40.5,29.88,East,90,2.3,0.0,82,0.00,OVC,,0.01,WeatherDisplay:10.37,2013-02-23 19:57:00,
2013-02-23 15:02:00,45.7,40.2,29.87,East,90,3.5,0.0,81,0.00,OVC,,0.01,WeatherDisplay:10.37,2013-02-23 20:02:00,
2013-02-23 15:07:00,46.0,40.5,29.87,East,90,1.1,0.0,81,0.00,OVC,,0.01,WeatherDisplay:10.37,2013-02-23 20:07:00,
2013-02-23 15:12:00,46.2,40.7,29.87,North,0,3.5,3.5,81,0.00,OVC,,0.01,WeatherDisplay:10.37,2013-02-23 20:12:00,
2013-02-23 15:17:00,46.2,40.4,29.87,North,0,5.8,5.8,80,0.00,OVC,,0.01,WeatherDisplay:10.37,2013-02-23 20:17:00,
2013-02-23 15:22:00,46.2,40.7,29.87,East,90,1.1,0.0,81,0.00,OVC,,0.01,WeatherDisplay:10.37,2013-02-23 20:22:00,
2013-02-23 15:27:00,46.6,41.1,29.86,East,90,3.5,3.5,81,0.00,OVC,,0.01,WeatherDisplay:10.37,2013-02-23 20:27:00,
2013-02-23 15:32:00,46.9,41.1,29.86,North,0,3.5,3.5,80,0.00,OVC,,0.01,WeatherDisplay:10.37,2013-02-23 20:32:00,
2013-02-23 15:37:00,46.9,41.1,29.86,East,90,6.9,6.9,80,0.00,OVC,,0.01,WeatherDisplay:10.37,2013-02-23 20:37:00,
2013-02-23 15:42:00,46.4,40.6,29.86,East,90,5.8,5.8,80,0.00,OVC,,0.01,WeatherDisplay:10.37,2013-02-23 20:42:00,
2013-02-23 15:47:00,46.0,40.2,29.86,East,90,2.3,2.3,80,0.00,OVC,,0.01,WeatherDisplay:10.37,2013-02-23 20:47:00,
2013-02-23 15:52:00,45.7,40.5,29.86,North,0,6.9,6.9,82,0.00,OVC,,0.01,WeatherDisplay:10.37,2013-02-23 20:52:00,
2013-02-23 15:57:00,45.9,41.0,29.85,East,90,2.3,0.0,83,0.00,OVC,,0.01,WeatherDisplay:10.37,2013-02-23 20:57:00,
2013-02-23 16:02:00,45.9,41.0,29.85,North,0,4.6,4.6,83,0.00,OVC,,0.01,WeatherDisplay:10.37,2013-02-23 21:02:00,
2013-02-23 16:07:00,46.0,41.2,29.85,North,0,5.8,5.8,83,0.00,OVC,,0.01,WeatherDisplay:10.37,2013-02-23 21:07:00,
2013-02-23 16:12:00,45.9,40.7,29.85,North,0,3.8,3.8,82,0.00,OVC,,0.01,WeatherDisplay:10.37,2013-02-23 21:12:00,
2013-02-23 16:17:00,45.7,40.5,29.85,East,90,1.6,1.6,82,0.00,BKN,,0.01,WeatherDisplay:10.37,2013-02-23 21:17:00,
2013-02-23 16:22:00,45.5,40.3,29.85,North,0,5.8,5.8,82,0.00,BKN,,0.01,WeatherDisplay:10.37,2013-02-23 21:22:00,
2013-02-23 16:27:00,45.5,40.6,29.85,North,0,2.3,2.3,83,0.00,BKN,,0.01,WeatherDisplay:10.37,2013-02-23 21:27:00,
2013-02-23 16:32:00,45.5,40.6,29.85,East,90,1.1,1.1,83,0.00,BKN,,0.01,WeatherDisplay:10.37,2013-02-23 21:32:00,
2013-02-23 16:37:00,45.5,40.3,29.85,East,90,1.1,0.0,82,0.00,BKN,,0.01,WeatherDisplay:10.37,2013-02-23 21:37:00,
2013-02-23 16:42:00,46.0,40.9,29.85,East,90,2.3,2.3,82,0.00,BKN,,0.01,WeatherDisplay:10.37,2013-02-23 21:42:00,
2013-02-23 16:47:00,46.6,41.4,29.84,East,90,2.3,0.0,82,0.00,BKN,,0.01,WeatherDisplay:10.37,2013-02-23 21:47:00,
2013-02-23 16:52:00,46.9,41.4,29.85,East,90,2.3,2.3,81,0.00,BKN,,0.01,WeatherDisplay:10.37,2013-02-23 21:52:00,
2013-02-23 16:57:00,46.4,40.6,29.85,East,90,1.1,0.0,80,0.00,BKN,,0.01,WeatherDisplay:10.37,2013-02-23 21:57:00,
2013-02-23 17:03:00,45.9,40.4,29.85,East,90,1.1,1.1,81,0.00,BKN,,0.01,WeatherDisplay:10.37,2013-02-23 22:03:00,
2013-02-23 17:08:00,45.5,40.0,29.85,East,90,1.1,0.0,81,0.00,BKN,,0.01,WeatherDisplay:10.37,2013-02-23 22:08:00,
2013-02-23 17:13:00,45.5,40.3,29.84,East,90,1.1,0.0,82,0.00,BKN,,0.01,WeatherDisplay:10.37,2013-02-23 22:13:00,
2013-02-23 17:18:00,45.5,40.3,29.85,East,90,1.1,0.0,82,0.00,SCT,,0.01,WeatherDisplay:10.37,2013-02-23 22:18:00,
2013-02-23 17:23:00,45.5,40.3,29.85,East,90,1.1,0.0,82,0.00,SCT,,0.01,WeatherDisplay:10.37,2013-02-23 22:23:00,
2013-02-23 17:28:00,45.5,40.3,29.85,East,90,0.0,0.0,82,0.00,SCT,,0.01,WeatherDisplay:10.37,2013-02-23 22:28:00,
2013-02-23 17:33:00,45.5,40.0,29.85,East,90,0.0,0.0,81,0.00,SCT,,0.01,WeatherDisplay:10.37,2013-02-23 22:33:00,
2013-02-23 17:38:00,45.5,40.0,29.84,East,90,0.0,0.0,81,0.00,SCT,,0.01,WeatherDisplay:10.37,2013-02-23 22:38:00,
2013-02-23 17:43:00,45.0,39.5,29.84,East,90,0.0,0.0,81,0.00,SCT,,0.01,WeatherDisplay:10.37,2013-02-23 22:43:00,
2013-02-23 17:48:00,44.1,38.9,29.84,East,90,0.0,0.0,82,0.00,SCT,,0.01,WeatherDisplay:10.37,2013-02-23 22:48:00,
2013-02-23 17:53:00,43.5,38.7,29.84,East,90,1.1,0.0,83,0.00,SCT,,0.01,WeatherDisplay:10.37,2013-02-23 22:53:00,
2013-02-23 17:58:00,43.0,38.5,29.84,East,90,1.1,0.0,84,0.00,SCT,,0.01,WeatherDisplay:10.37,2013-02-23 22:58:00,
2013-02-23 18:03:00,42.6,38.4,29.85,East,90,0.0,0.0,85,0.00,SCT,,0.01,WeatherDisplay:10.37,2013-02-23 23:03:00,
2013-02-23 18:08:00,42.3,38.1,29.85,East,90,0.0,0.0,85,0.00,SCT,,0.01,WeatherDisplay:10.37,2013-02-23 23:08:00,
2013-02-23 18:13:00,41.9,38.0,29.84,East,90,1.1,1.1,86,0.00,SCT,,0.01,WeatherDisplay:10.37,2013-02-23 23:13:00,
2013-02-23 18:18:00,41.7,38.1,29.84,East,90,1.1,1.1,87,0.00,CLR,,0.01,WeatherDisplay:10.37,2013-02-23 23:18:00,
2013-02-23 18:23:00,41.4,38.1,29.83,East,90,2.3,2.3,88,0.00,CLR,,0.01,WeatherDisplay:10.37,2013-02-23 23:23:00,
2013-02-23 18:28:00,40.8,37.8,29.84,East,90,1.1,0.0,89,0.00,CLR,,0.01,WeatherDisplay:10.37,2013-02-23 23:28:00,
2013-02-23 18:33:00,40.3,37.3,29.85,East,90,1.1,0.0,89,0.00,CLR,,0.01,WeatherDisplay:10.37,2013-02-23 23:33:00,
2013-02-23 18:38:00,39.7,36.8,29.84,East,90,0.0,0.0,89,0.00,CLR,,0.01,WeatherDisplay:10.37,2013-02-23 23:38:00,
2013-02-23 18:43:00,39.4,36.4,29.84,East,90,1.1,0.0,89,0.00,CLR,,0.01,WeatherDisplay:10.37,2013-02-23 23:43:00,
2013-02-23 18:48:00,39.0,36.3,29.85,East,90,1.1,1.1,90,0.00,CLR,,0.01,WeatherDisplay:10.37,2013-02-23 23:48:00,
2013-02-23 18:53:00,39.2,37.1,29.84,East,90,1.1,0.0,92,0.00,CLR,,0.01,WeatherDisplay:10.37,2013-02-23 23:53:00,
2013-02-23 18:58:00,39.2,37.1,29.84,East,90,0.0,0.0,92,0.00,CLR,,0.01,WeatherDisplay:10.37,2013-02-23 23:58:00,
2013-02-23 19:03:00,39.2,37.1,29.84,East,90,0.0,0.0,92,0.00,BKN,,0.01,WeatherDisplay:10.37,2013-02-24 00:03:00,
2013-02-23 19:08:00,39.0,37.2,29.84,East,90,0.0,0.0,93,0.00,BKN,,0.01,WeatherDisplay:10.37,2013-02-24 00:08:00,
2013-02-23 19:13:00,39.0,37.4,29.84,East,90,1.1,0.0,94,0.00,BKN,,0.01,WeatherDisplay:10.37,2013-02-24 00:13:00,
2013-02-23 19:18:00,39.0,37.4,29.84,East,90,1.1,0.0,94,0.00,BKN,,0.01,WeatherDisplay:10.37,2013-02-24 00:18:00,
2013-02-23 19:23:00,39.0,37.4,29.84,East,90,1.1,0.0,94,0.00,BKN,,0.01,WeatherDisplay:10.37,2013-02-24 00:23:00,
2013-02-23 19:28:00,39.0,37.4,29.84,East,90,1.1,0.0,94,0.00,BKN,,0.01,WeatherDisplay:10.37,2013-02-24 00:28:00,
2013-02-23 19:33:00,39.0,37.4,29.83,East,90,1.1,0.0,94,0.00,BKN,,0.01,WeatherDisplay:10.37,2013-02-24 00:33:00,
2013-02-23 19:38:00,39.0,37.4,29.84,East,90,0.0,0.0,94,0.00,BKN,,0.01,WeatherDisplay:10.37,2013-02-24 00:38:00,
2013-02-23 19:43:00,39.0,37.4,29.83,East,90,2.3,2.3,94,0.00,BKN,,0.01,WeatherDisplay:10.37,2013-02-24 00:43:00,
2013-02-23 19:48:00,39.0,37.4,29.83,East,90,1.1,0.0,94,0.00,SCT,,0.01,WeatherDisplay:10.37,2013-02-24 00:48:00,
2013-02-23 19:53:00,39.0,37.4,29.82,East,90,1.1,1.1,94,0.00,SCT,,0.01,WeatherDisplay:10.37,2013-02-24 00:53:00,
2013-02-23 19:58:00,38.8,37.3,29.83,East,90,1.1,0.0,94,0.00,SCT,,0.01,WeatherDisplay:10.37,2013-02-24 00:58:00,
2013-02-23 20:03:00,38.7,37.1,29.83,East,90,0.0,0.0,94,0.00,SCT,,0.01,WeatherDisplay:10.37,2013-02-24 01:03:00,
2013-02-23 20:08:00,38.5,36.9,29.83,East,90,0.0,0.0,94,0.00,SCT,,0.01,WeatherDisplay:10.37,2013-02-24 01:08:00,
2013-02-23 20:13:00,38.1,36.5,29.83,East,90,0.0,0.0,94,0.00,SCT,,0.01,WeatherDisplay:10.37,2013-02-24 01:13:00,
2013-02-23 20:18:00,37.9,36.4,29.83,East,90,1.1,0.0,94,0.00,CLR,,0.01,WeatherDisplay:10.37,2013-02-24 01:18:00,
2013-02-23 20:23:00,37.9,36.6,29.82,East,90,1.1,0.0,95,0.00,CLR,,0.01,WeatherDisplay:10.37,2013-02-24 01:23:00,
2013-02-23 20:28:00,37.9,36.6,29.83,East,90,0.0,0.0,95,0.00,CLR,,0.01,WeatherDisplay:10.37,2013-02-24 01:28:00,
2013-02-23 20:33:00,37.8,36.5,29.82,East,90,0.0,0.0,95,0.00,CLR,,0.01,WeatherDisplay:10.37,2013-02-24 01:33:00,
2013-02-23 20:38:00,37.8,36.7,29.82,East,90,0.0,0.0,96,0.00,CLR,,0.01,WeatherDisplay:10.37,2013-02-24 01:38:00,
2013-02-23 20:43:00,37.8,36.7,29.83,East,90,1.1,0.0,96,0.00,CLR,,0.01,WeatherDisplay:10.37,2013-02-24 01:43:00,
2013-02-23 20:48:00,37.9,36.9,29.83,East,90,1.1,0.0,96,0.00,CLR,,0.01,WeatherDisplay:10.37,2013-02-24 01:48:00,
2013-02-23 20:53:00,37.8,36.7,29.83,East,90,0.0,0.0,96,0.00,CLR,,0.01,WeatherDisplay:10.37,2013-02-24 01:53:00,
2013-02-23 20:58:00,37.6,36.5,29.83,East,90,0.0,0.0,96,0.00,CLR,,0.01,WeatherDisplay:10.37,2013-02-24 01:58:00,
2013-02-23 21:03:00,37.4,36.4,29.83,East,90,1.1,0.0,96,0.00,CLR,,0.01,WeatherDisplay:10.37,2013-02-24 02:03:00,
2013-02-23 21:08:00,37.2,36.2,29.83,East,90,1.1,0.0,96,0.00,CLR,,0.01,WeatherDisplay:10.37,2013-02-24 02:08:00,
2013-02-23 21:13:00,37.2,36.2,29.82,East,90,1.1,0.0,96,0.00,CLR,,0.01,WeatherDisplay:10.37,2013-02-24 02:13:00,
2013-02-23 21:18:00,37.0,36.0,29.82,East,90,1.1,0.0,96,0.00,CLR,,0.01,WeatherDisplay:10.37,2013-02-24 02:18:00,
2013-02-23 21:23:00,36.9,36.1,29.83,East,90,1.1,0.0,97,0.00,CLR,,0.01,WeatherDisplay:10.37,2013-02-24 02:23:00,
2013-02-23 21:28:00,36.7,35.9,29.83,East,90,0.0,0.0,97,0.00,CLR,,0.01,WeatherDisplay:10.37,2013-02-24 02:28:00,
2013-02-23 21:33:00,36.7,35.9,29.83,East,90,0.0,0.0,97,0.00,BKN,,0.01,WeatherDisplay:10.37,2013-02-24 02:33:00,
2013-02-23 21:38:00,36.7,35.9,29.83,East,90,0.0,0.0,97,0.00,BKN,,0.01,WeatherDisplay:10.37,2013-02-24 02:38:00,
2013-02-23 21:43:00,36.5,35.7,29.83,East,90,0.0,0.0,97,0.00,BKN,,0.01,WeatherDisplay:10.37,2013-02-24 02:43:00,
2013-02-23 21:48:00,36.3,35.6,29.83,East,90,1.1,0.0,97,0.00,BKN,,0.01,WeatherDisplay:10.37,2013-02-24 02:48:00,
2013-02-23 21:53:00,36.5,36.0,29.82,East,90,1.1,0.0,98,0.00,BKN,,0.01,WeatherDisplay:10.37,2013-02-24 02:53:00,
2013-02-23 21:58:00,36.3,35.8,29.82,East,90,1.1,0.0,98,0.00,BKN,,0.01,WeatherDisplay:10.37,2013-02-24 02:58:00,
2013-02-23 22:03:00,36.3,35.8,29.82,East,90,2.3,2.3,98,0.00,OVC,,0.01,WeatherDisplay:10.37,2013-02-24 03:03:00,
2013-02-23 22:08:00,36.5,36.0,29.82,East,90,1.1,0.0,98,0.00,OVC,,0.01,WeatherDisplay:10.37,2013-02-24 03:08:00,
2013-02-23 22:13:00,36.5,36.0,29.82,East,90,1.1,0.0,98,0.00,OVC,,0.01,WeatherDisplay:10.37,2013-02-24 03:13:00,
2013-02-23 22:18:00,36.5,36.0,29.82,East,90,1.1,0.0,98,0.00,OVC,,0.01,WeatherDisplay:10.37,2013-02-24 03:18:00,
2013-02-23 22:23:00,36.5,36.0,29.82,East,90,1.1,0.0,98,0.00,OVC,,0.01,WeatherDisplay:10.37,2013-02-24 03:23:00,
2013-02-23 22:28:00,36.7,36.4,29.82,East,90,1.1,0.0,99,0.00,OVC,,0.01,WeatherDisplay:10.37,2013-02-24 03:28:00,
2013-02-23 22:33:00,36.9,36.6,29.82,East,90,1.1,0.0,99,0.00,OVC,,0.01,WeatherDisplay:10.37,2013-02-24 03:33:00,
2013-02-23 22:38:00,36.9,36.6,29.82,East,90,2.3,0.0,99,0.00,OVC,,0.01,WeatherDisplay:10.37,2013-02-24 03:38:00,
2013-02-23 22:43:00,37.0,36.8,29.82,East,90,0.0,0.0,99,0.00,OVC,,0.01,WeatherDisplay:10.37,2013-02-24 03:43:00,
2013-02-23 22:48:00,37.2,37.0,29.82,East,90,1.1,0.0,99,0.00,OVC,,0.01,WeatherDisplay:10.37,2013-02-24 03:48:00,
2013-02-23 22:53:00,37.2,37.0,29.81,East,90,1.1,0.0,99,0.00,OVC,,0.01,WeatherDisplay:10.37,2013-02-24 03:53:00,
2013-02-23 22:58:00,37.2,37.0,29.81,East,90,1.1,0.0,99,0.00,OVC,,0.01,WeatherDisplay:10.37,2013-02-24 03:58:00,
2013-02-23 23:03:00,37.4,37.1,29.81,East,90,1.1,0.0,99,0.00,OVC,,0.01,WeatherDisplay:10.37,2013-02-24 04:03:00,
2013-02-23 23:08:00,37.4,37.1,29.81,East,90,0.0,0.0,99,0.00,OVC,,0.01,WeatherDisplay:10.37,2013-02-24 04:08:00,
2013-02-23 23:13:00,37.4,37.1,29.82,East,90,0.0,0.0,99,0.00,OVC,,0.01,WeatherDisplay:10.37,2013-02-24 04:13:00,
2013-02-23 23:18:00,37.4,37.1,29.82,East,90,0.0,0.0,99,0.00,OVC,,0.01,WeatherDisplay:10.37,2013-02-24 04:18:00,
2013-02-23 23:23:00,37.4,37.1,29.81,East,90,0.0,0.0,99,0.00,OVC,,0.01,WeatherDisplay:10.37,2013-02-24 04:23:00,
2013-02-23 23:28:00,37.6,37.3,29.82,East,90,0.0,0.0,99,0.00,OVC,,0.01,WeatherDisplay:10.37,2013-02-24 04:28:00,
2013-02-23 23:33:00,37.6,37.3,29.81,East,90,1.1,0.0,99,0.00,OVC,,0.01,WeatherDisplay:10.37,2013-02-24 04:33:00,
2013-02-23 23:38:00,37.8,37.5,29.81,East,90,1.1,0.0,99,0.00,OVC,,0.01,WeatherDisplay:10.37,2013-02-24 04:38:00,
2013-02-23 23:43:00,37.8,37.5,29.81,East,90,1.1,0.0,99,0.00,OVC,,0.01,WeatherDisplay:10.37,2013-02-24 04:43:00,
2013-02-23 23:48:00,37.8,37.5,29.81,East,90,0.0,0.0,99,0.00,OVC,,0.01,WeatherDisplay:10.37,2013-02-24 04:48:00,
2013-02-23 23:53:00,37.8,37.5,29.81,East,90,0.0,0.0,99,0.00,OVC,,0.01,WeatherDisplay:10.37,2013-02-24 04:53:00,
2013-02-23 23:58:00,37.8,37.5,29.81,East,90,0.0,0.0,99,0.00,OVC,,0.01,WeatherDisplay:10.37,2013-02-24 04:58:00,